Location: Buckland
(65.9785°N, 161.1281°W)
Time: 14:43:23
(UTC+00:00)

Transit 4A - Pass Details

Date: 12 October 2022
Orbit: 871 x 972 km, 66.8° (Epoch: 29 November)

Event Time Altitude Azimuth Distance (km) Brightness Sun altitude
Exits shadow 15:27:12 14° 288° (WNW) 2,262 9.4 -13.3°
Maximum altitude 15:30:57 26° 241° (WSW) 1,659 8.7 -13.0°
Drops below altitude 10° 15:35:40 10° 187° (S) 2,522 10.0 -12.5°
Sets 15:38:29 0° 175° (S) 3,456 10.9 -12.2°
